Погода в Томашгороде

Украина / Ровненская область     51°18′13″N   27°04′07″E
темп.,
°C
ветер,
м/с
пор.,
м/с
влажн.,
%
обл.,
%
осадки,
мм/ч
давл.,
гПа
погр.,
м
21 июня, пн
пн2100:00+19в249216 0.1 101576
03:00+18в2697100 0.1 1014144
06:00+18в269772 0.0 1014168
09:00+24в47696 0.0 1013675
12:00+28вюв47515 0.0 10121455
15:00+30вюв464696 0.0 10112206
18:00+24ююв3781100 0.8 1011208
21:00+22юв2588100 1.2 1011107
22 июня, вт
вт2200:00+20юв269465 0.0 1012131
03:00+19ююв24965 0.0 101388
06:00+19вюв25960 0.0 1013107
09:00+24юв35715 0.0 1013508
12:00+29юв354761 0.0 10131645
15:00+31юв454395 0.0 10121930
18:00+30юв4551100 0.0 10121353
21:00+24вюв397791 0.0 1013232
23 июня, ср
ср2300:00+20юв22931 0.0 101432
03:00+19вюв36950 0.0 1014120
06:00+19юв23945 0.0 101478
09:00+25вюв35660 0.0 1015482
12:00+30юв24511 0.0 10151378
15:00+32вюв34370 0.0 10141966
18:00+32юв33380 0.0 10141693
21:00+26ю11646 0.0 101411
24 июня, чт
чт2400:00+22зюз118586 0.0 101614
03:00+21вюв229197 0.0 101536
06:00+21юв249441 0.0 1016107
09:00+26юв237090 0.1 1016548
12:00+30ююв344826 0.0 10161640
15:00+32ю334097 0.0 10152506
18:00+29юз355694 0.0 1015341
21:00+24ю22741 0.2 101428
25 июня, пт
пт2500:00+22ю22870 0.6 101426
03:00+20ю22924 0.6 101524
06:00+21ю239218 0.0 101457
09:00+26ю356797 0.0 1014481
12:00+31ююв454572 0.0 10131620
15:00+33ю453830 0.0 10122235
18:00+31юз444724 0.0 10111461
21:00+24юз258388 2.1 101286